TimeMST,TemperatureF,Dew PointF,Humidity,Sea Level PressureIn,VisibilityMPH,Wind Direction,Wind SpeedMPH,Gust SpeedMPH,PrecipitationIn,Events,Conditions,WindDirDegrees,DateUTC
12:54 AM,64.9,44.1,47,29.87,10.0,Calm,Calm,-,N/A,,Clear,0,2013-07-03 07:54:00
1:54 AM,57.0,43.0,59,29.92,10.0,NE,4.6,-,N/A,,Clear,40,2013-07-03 08:54:00
2:54 AM,57.0,42.1,57,29.91,10.0,Calm,Calm,-,N/A,,Clear,0,2013-07-03 09:54:00
3:54 AM,55.9,43.0,62,29.92,10.0,Calm,Calm,-,N/A,,Clear,0,2013-07-03 10:54:00
4:54 AM,54.0,44.1,69,29.93,10.0,ENE,5.8,-,N/A,,Clear,60,2013-07-03 11:54:00
5:54 AM,53.1,42.1,66,29.97,10.0,ENE,3.5,-,N/A,,Clear,60,2013-07-03 12:54:00
6:54 AM,62.1,44.1,52,29.94,10.0,Calm,Calm,-,N/A,,Clear,0,2013-07-03 13:54:00
7:54 AM,73.9,44.1,34,29.92,10.0,South,4.6,-,N/A,,Clear,190,2013-07-03 14:54:00
8:54 AM,79.0,43.0,28,29.91,10.0,West,8.1,-,N/A,,Clear,280,2013-07-03 15:54:00
9:54 AM,81.0,43.0,26,29.90,10.0,Variable,3.5,-,N/A,,Clear,0,2013-07-03 16:54:00
10:54 AM,87.1,43.0,21,29.87,10.0,Variable,3.5,-,N/A,,Clear,0,2013-07-03 17:54:00
11:54 AM,89.1,43.0,20,29.84,10.0,WSW,9.2,17.3,N/A,,Clear,250,2013-07-03 18:54:00
12:54 PM,89.1,41.0,19,29.83,10.0,SSW,11.5,21.9,N/A,,Clear,210,2013-07-03 19:54:00
1:54 PM,89.1,37.9,16,29.84,10.0,Variable,4.6,-,N/A,,Mostly Cloudy,0,2013-07-03 20:54:00
2:54 PM,88.0,37.0,16,29.82,10.0,Variable,5.8,16.1,N/A,,Mostly Cloudy,0,2013-07-03 21:54:00
3:26 PM,80.6,53.6,39,30.15,10.0,South,16.1,23.0,0.04,Rain-Thunderstorm,Light Thunderstorms and Rain,190,2013-07-03 22:26:00
3:54 PM,79.0,45.0,30,29.86,10.0,South,8.1,21.9,0.04,Thunderstorm,Thunderstorm,170,2013-07-03 22:54:00
3:58 PM,78.8,46.4,32,30.16,7.0,SE,10.4,-,0.01,Rain-Thunderstorm,Thunderstorms and Rain,140,2013-07-03 22:58:00
4:54 PM,77.0,54.0,45,29.84,10.0,East,3.5,-,0.05,Rain-Thunderstorm,Thunderstorms and Rain,90,2013-07-03 23:54:00
5:02 PM,78.8,51.8,39,30.13,10.0,South,3.5,-,0.00,,Clear,190,2013-07-04 00:02:00
5:54 PM,80.1,45.0,29,29.83,10.0,SSW,13.8,-,0.00,,Clear,200,2013-07-04 00:54:00
6:54 PM,73.0,51.1,46,29.85,10.0,SSW,5.8,-,N/A,,Clear,210,2013-07-04 01:54:00
7:54 PM,64.9,52.0,63,29.85,10.0,NE,3.5,-,N/A,,Clear,40,2013-07-04 02:54:00
8:54 PM,71.1,46.9,42,29.79,10.0,SW,9.2,-,N/A,,Clear,230,2013-07-04 03:54:00
9:54 PM,68.0,50.0,52,29.82,10.0,Calm,Calm,-,N/A,,Clear,0,2013-07-04 04:54:00
10:54 PM,64.9,52.0,63,29.81,10.0,Calm,Calm,-,N/A,,Clear,0,2013-07-04 05:54:00
11:54 PM,73.0,43.0,34,29.76,10.0,NW,15.0,23.0,N/A,,Scattered Clouds,320,2013-07-04 06:54:00